THORAD AGENA D DEB, 5153

Orbit data source: Space-Track

THORAD AGENA D DEB, 5153 is space debris in SSO originally from a launch on Wed, 08 Apr 1970 UTC launched from the Air Force Western Test Range (AFWTR). Debris objects in space refer to the collection of defunct objects orbiting the Earth. Examples of debris include non-operational satellites, rocket bodies, and fragments generated from explosions, collisions, or faulty payload assembly.

Loading next visibility...
Identifier
5153, 1970-025JW
Orbit
SSO
Country
Flag of USUS
Related business
Manufacturer
Unknown
Mission
Spacecraft
Bus & Motor
Unknown
Mass
Unknown
Launch date (UTC)
1970-04-08 (56 years ago)
Launch vehicle
Unknown
Launch site
Air Force Western Test Range (AFWTR)
Object type
Payload
Rocket body
Debris
Shape & HBR
Unknown shape, 0.1 m
Radar Cross Section
Small (<0.1 m²)

Expand to show TLE details & history
Last TLE update: 20 hours ago

TLE from 20 hours ago
0 THORAD AGENA D DEB
1 05153U 70025JW  25292.29016002  .00000650  00000-0  96104-3 0  9992
2 05153  99.9661  38.9218 0034604 132.5638 286.2929 13.57882895736518
Epoch: 2025-10-19T06:57Z
TLE epoch observation values (Epoch: 2025-10-19T06:57:49.825Z)
Latitude
57.19053°
Longitude
-109.27776°
Altitude
1,045.77 km
Speed
7.338 km/s
True Right ascension
01h 32m 45s
True Declination
57° 02' 23"
Sunlit
Object was in full shadow at epoch
Visualization orbit readout
Latitude
Unknown
Longitude
Unknown
Altitude
Unknown
Speed
Unknown
Apparent Right ascension
Unknown
Apparent Declination
Unknown
Sunlit
N/A
Visualization observer readout
Local Sidereal Time
21:39:33
Azimuth
Unknown
Elevation
Unknown
Doppler factor
Unknown
Orbital elements
Apogee altitude
1,066.373 km
Perigee altitude
1,015.029 km
Semi-major axis
7,418.838 km
Eccentricity
0.00346
Inclination
99.9661°
RAAN
38.9218°
Arg. of periapsis
132.5638°
True anomaly
285.91183°
Mean anomaly
286.2929°
Eccentric anomaly
286.10241°
Mean motion
3.39656 °/min
Orbital period
105.99 mins
BSTAR
0.00096104
Loading maneuver chart data...
Computing Atmospheric mass density...

Documentation

Showing up to 5 results
|